Home > Weather > Horsham > Past weeks

Flag for United Kingdom Past Weather in Horsham, England, United Kingdom — Yesterday and Last 2 Weeks

Now
66 °F

Scattered clouds.


Feels Like: 66 °F
Forecast: 56 / 70 °F
Wind: 8 mph from Northwest

Location: London / Gatwick Airport

Current Time: Jul 30, 2016 at 2:07:08 PM

Latest Report: Jul 30, 2016 at 1:20 PM


Visibility: N/A

Pressure: 29.95 "Hg

Humidity: 73%

Dew Point: 57 °F

Location of HorshamLocation

Past Weather in Horsham — Graph

°F

Horsham Temperature Yesterday

Maximum temperature yesterday: 72 °F (at 2:50 PM)
Minimum temperature yesterday: 59 °F (at 11:50 PM)
Average temperature yesterday: 65 °F

High & Low Weather Summary for the Past Weeks

 TemperatureHumidityPressure
High88 °F (Jul 19, 3:50 PM)100% (Jul 18, 2:20 AM)30.33 "Hg (Jul 18, 2:20 AM)
Low54 °F (Jul 21, 5:20 AM)37% (Jul 18, 3:50 PM)29.77 "Hg (Jul 20, 4:20 AM)
Average67 °F78%30.06 "Hg
* Reported Jul 15 12:20 PM — Jul 30 12:50 PM, Horsham, Weather by CustomWeather, © 2016

Note: Actual official high and low records may vary slightly from our data, if they occured in-between our weather recording intervals... More about our weather records

Advertising

Horsham Weather History for the Previous 24 Hours

Scroll right to see more
 ConditionsComfort  
Time TempWeatherWind HumidityBarometerVisibility
12:50 PM
Sat, Jul 30
66 °FScattered clouds.7 mph73%29.95 "HgN/A
12:20 PM66 °FPassing clouds.6 mph73%29.95 "HgN/A
11:50 AM64 °FScattered clouds.6 mph73%29.95 "HgN/A
11:20 AM64 °FPassing clouds.10 mph73%29.95 "HgN/A
10:50 AM64 °FBroken clouds.9 mph78%29.95 "HgN/A
10:20 AM63 °FSprinkles. Broken clouds.7 mph88%29.92 "HgN/A
9:50 AM63 °FSprinkles. Broken clouds.6 mph88%29.92 "HgN/A
9:20 AM63 °FPartly sunny.5 mph88%29.92 "HgN/A
8:50 AM61 °FScattered clouds.7 mph94%29.92 "HgN/A
8:20 AM61 °FPassing clouds.5 mph94%29.92 "HgN/A
7:50 AM61 °FPassing clouds.2 mph94%29.92 "HgN/A
7:20 AM59 °FSunny.2 mph94%29.92 "Hg10 mi
6:50 AM59 °FSunny.2 mph94%29.92 "Hg10 mi
6:20 AM57 °FClear.3 mph94%29.92 "Hg10 mi
5:50 AM57 °FClear.2 mph94%29.89 "Hg10 mi
5:20 AM57 °FPartly cloudy.3 mph94%29.89 "HgN/A
4:50 AM57 °FPassing clouds.3 mph94%29.89 "HgN/A
4:20 AM57 °FPassing clouds.2 mph94%29.89 "HgN/A
3:50 AM57 °FPassing clouds.3 mph94%29.89 "HgN/A
3:20 AM55 °FPassing clouds.5 mph100%29.89 "HgN/A
2:50 AM57 °FPassing clouds.5 mph94%29.89 "HgN/A
2:20 AM57 °FPassing clouds.5 mph100%29.89 "HgN/A
1:50 AM59 °FPassing clouds.6 mph94%29.89 "HgN/A
1:20 AM59 °FClear.7 mph94%29.89 "Hg10 mi
12:50 AM59 °FClear.7 mph94%29.89 "Hg10 mi
12:20 AM59 °FClear.6 mph94%29.89 "Hg10 mi
11:50 PM
Fri, Jul 29
59 °FClear.6 mph94%29.89 "Hg10 mi
11:20 PM61 °FClear.7 mph88%29.89 "Hg10 mi
10:50 PM61 °FClear.7 mph88%29.89 "Hg10 mi
10:20 PM61 °FClear.8 mph88%29.89 "Hg10 mi
9:50 PM63 °FClear.7 mph83%29.89 "Hg10 mi
9:20 PM63 °FSunny.7 mph83%29.89 "Hg10 mi
8:50 PM64 °FSunny.10 mph78%29.86 "Hg10 mi
8:20 PM66 °FSunny.9 mph73%29.86 "Hg10 mi
7:50 PM66 °FPassing clouds.10 mph73%29.86 "HgN/A
7:20 PM66 °FPassing clouds.9 mph73%29.86 "HgN/A
6:50 PM66 °FPassing clouds.10 mph73%29.86 "HgN/A
6:20 PM68 °FScattered clouds.10 mph69%29.86 "HgN/A
5:50 PM68 °FScattered clouds.13 mph73%29.86 "HgN/A
5:20 PM68 °FScattered clouds.12 mph69%29.86 "HgN/A
4:50 PM70 °FPassing clouds.14 mph69%29.86 "HgN/A
4:20 PM70 °FScattered clouds.14 mph69%29.86 "HgN/A
3:50 PM70 °FBroken clouds.14 mph69%29.86 "HgN/A
3:20 PM72 °FBroken clouds.14 mph65%29.86 "HgN/A
2:50 PM72 °FPartly sunny.10 mph61%29.86 "HgN/A
2:20 PM70 °FScattered clouds.10 mph69%29.86 "HgN/A
Weather by CustomWeather, © 2016

See weather overviewHow to use our weather pages